Year,Month,Day,Hour,Minute,Value (Times are PST for windspeed in km/hr)
2012,12,03,00,00,8.40
2012,12,03,00,01,7.40
2012,12,03,00,02,6.60
2012,12,03,00,03,7.40
2012,12,03,00,04,10.10
2012,12,03,00,05,8.10
2012,12,03,00,06,6.70
2012,12,03,00,07,7.70
2012,12,03,00,08,4.30
2012,12,03,00,09,4.40
2012,12,03,00,10,5.60
2012,12,03,00,11,7.10
2012,12,03,00,12,6.90
2012,12,03,00,13,8.70
2012,12,03,00,14,6.50
2012,12,03,00,15,10.90
2012,12,03,00,16,8.10
2012,12,03,00,17,13.00
2012,12,03,00,18,10.40
2012,12,03,00,19,6.80
2012,12,03,00,20,8.20
2012,12,03,00,21,10.10
2012,12,03,00,22,4.20
2012,12,03,00,23,10.30
2012,12,03,00,24,11.80
2012,12,03,00,25,11.90
2012,12,03,00,26,11.80
2012,12,03,00,27,13.30
2012,12,03,00,28,13.20
2012,12,03,00,29,11.50
2012,12,03,00,30,9.70
2012,12,03,00,31,12.60
2012,12,03,00,32,8.40
2012,12,03,00,33,11.80
2012,12,03,00,34,12.60
2012,12,03,00,35,14.40
2012,12,03,00,36,9.00
2012,12,03,00,37,8.10
2012,12,03,00,38,12.00
2012,12,03,00,39,8.90
2012,12,03,00,40,8.60
2012,12,03,00,41,9.40
2012,12,03,00,42,8.10
2012,12,03,00,43,10.40
2012,12,03,00,44,8.90
2012,12,03,00,45,11.40
2012,12,03,00,46,9.20
2012,12,03,00,47,10.90
2012,12,03,00,48,8.50
2012,12,03,00,49,8.40
2012,12,03,00,50,10.40
2012,12,03,00,51,12.10
2012,12,03,00,52,7.00
2012,12,03,00,53,10.70
2012,12,03,00,54,8.30
2012,12,03,00,55,8.00
2012,12,03,00,56,10.80
2012,12,03,00,57,8.20
2012,12,03,00,58,11.80
2012,12,03,00,59,12.60
2012,12,03,01,00,9.10
2012,12,03,01,01,12.00
2012,12,03,01,02,13.20
2012,12,03,01,03,13.80
2012,12,03,01,04,12.60
2012,12,03,01,05,13.80
2012,12,03,01,06,9.70
2012,12,03,01,07,9.40
2012,12,03,01,08,13.10
2012,12,03,01,09,10.10
2012,12,03,01,10,9.40
2012,12,03,01,11,6.60
2012,12,03,01,12,13.50
2012,12,03,01,13,13.40
2012,12,03,01,14,12.40
2012,12,03,01,15,12.00
2012,12,03,01,16,12.20
2012,12,03,01,17,11.50
2012,12,03,01,18,11.20
2012,12,03,01,19,7.60
2012,12,03,01,20,8.70
2012,12,03,01,21,9.30
2012,12,03,01,22,15.00
2012,12,03,01,23,7.20
2012,12,03,01,24,7.00
2012,12,03,01,25,7.50
2012,12,03,01,26,7.50
2012,12,03,01,27,7.50
2012,12,03,01,28,8.80
2012,12,03,01,29,9.10
2012,12,03,01,30,5.80
2012,12,03,01,31,4.70
2012,12,03,01,32,13.10
2012,12,03,01,33,8.60
2012,12,03,01,34,5.80
2012,12,03,01,35,6.80
2012,12,03,01,36,6.70
2012,12,03,01,37,6.20
2012,12,03,01,38,7.50
2012,12,03,01,39,6.30
2012,12,03,01,40,5.80
2012,12,03,01,41,6.50
2012,12,03,01,42,5.50
2012,12,03,01,43,4.10
2012,12,03,01,44,6.60
2012,12,03,01,45,3.10
2012,12,03,01,46,2.90
2012,12,03,01,47,0.80
2012,12,03,01,48,0.60
2012,12,03,01,49,0.90
2012,12,03,01,50,4.30
2012,12,03,01,51,0.80
2012,12,03,01,52,0.00
2012,12,03,01,53,0.00
2012,12,03,01,54,0.00
2012,12,03,01,55,0.10
2012,12,03,01,56,0.50
2012,12,03,01,57,0.10
2012,12,03,01,58,3.00
2012,12,03,01,59,2.00
2012,12,03,02,00,0.00
2012,12,03,02,01,0.00
2012,12,03,02,02,0.00
2012,12,03,02,03,0.00
2012,12,03,02,04,0.10
2012,12,03,02,05,0.00
2012,12,03,02,06,0.00
2012,12,03,02,07,0.10
2012,12,03,02,08,1.60
2012,12,03,02,09,0.80
2012,12,03,02,10,2.20
2012,12,03,02,11,2.00
2012,12,03,02,12,0.00
2012,12,03,02,13,0.00
2012,12,03,02,14,0.00
2012,12,03,02,15,0.50
2012,12,03,02,16,0.30
2012,12,03,02,17,1.20
2012,12,03,02,18,0.00
2012,12,03,02,19,2.10
2012,12,03,02,20,2.30
2012,12,03,02,21,0.00
2012,12,03,02,22,0.00
2012,12,03,02,23,1.40
2012,12,03,02,24,1.90
2012,12,03,02,25,0.50
2012,12,03,02,26,0.00
2012,12,03,02,27,0.20
2012,12,03,02,28,2.30
2012,12,03,02,29,0.20
2012,12,03,02,30,1.30
2012,12,03,02,31,1.70
2012,12,03,02,32,4.60
2012,12,03,02,33,3.60
2012,12,03,02,34,1.10
2012,12,03,02,35,3.50
2012,12,03,02,36,5.30
2012,12,03,02,37,7.10
2012,12,03,02,38,10.00
2012,12,03,02,39,8.50
2012,12,03,02,40,8.80
2012,12,03,02,41,6.40
2012,12,03,02,42,5.40
2012,12,03,02,43,9.20
2012,12,03,02,44,3.90
2012,12,03,02,45,6.50
2012,12,03,02,46,12.90
2012,12,03,02,47,6.20
2012,12,03,02,48,5.80
2012,12,03,02,49,8.70
2012,12,03,02,50,8.40
2012,12,03,02,51,8.30
2012,12,03,02,52,8.80
2012,12,03,02,53,8.00
2012,12,03,02,54,7.70
2012,12,03,02,55,11.70
2012,12,03,02,56,14.70
2012,12,03,02,57,16.70
2012,12,03,02,58,17.90
2012,12,03,02,59,20.80
2012,12,03,03,00,20.40
2012,12,03,03,01,16.90
2012,12,03,03,02,20.70
2012,12,03,03,03,14.20
2012,12,03,03,04,13.60
2012,12,03,03,05,6.90
2012,12,03,03,06,8.10
2012,12,03,03,07,4.80
2012,12,03,03,08,3.40
2012,12,03,03,09,3.90
2012,12,03,03,10,4.00
2012,12,03,03,11,1.30
2012,12,03,03,12,0.00
2012,12,03,03,13,3.60
2012,12,03,03,14,4.60
2012,12,03,03,15,6.90
2012,12,03,03,16,8.90
2012,12,03,03,17,5.80
2012,12,03,03,18,4.80
2012,12,03,03,19,3.90
2012,12,03,03,20,4.50
2012,12,03,03,21,3.40
2012,12,03,03,22,4.80
2012,12,03,03,23,6.40
2012,12,03,03,24,7.10
2012,12,03,03,25,4.60
2012,12,03,03,26,3.10
2012,12,03,03,27,4.00
2012,12,03,03,28,3.20
2012,12,03,03,29,0.40
2012,12,03,03,30,0.80
2012,12,03,03,31,3.30
2012,12,03,03,32,3.20
2012,12,03,03,33,4.70
2012,12,03,03,34,3.30
2012,12,03,03,35,1.00
2012,12,03,03,36,3.80
2012,12,03,03,37,5.40
2012,12,03,03,38,6.10
2012,12,03,03,39,12.20
2012,12,03,03,40,13.90
2012,12,03,03,41,15.00
2012,12,03,03,42,10.90
2012,12,03,03,43,11.10
2012,12,03,03,44,12.40
2012,12,03,03,45,9.70
2012,12,03,03,46,8.10
2012,12,03,03,47,8.10
2012,12,03,03,48,13.30
2012,12,03,03,49,15.70
2012,12,03,03,50,15.10
2012,12,03,03,51,16.90
2012,12,03,03,52,8.10
2012,12,03,03,53,7.70
2012,12,03,03,54,5.60
2012,12,03,03,55,10.30
2012,12,03,03,56,8.20
2012,12,03,03,57,18.20
2012,12,03,03,58,15.00
2012,12,03,03,59,12.70
2012,12,03,04,00,13.60
2012,12,03,04,01,18.30
2012,12,03,04,02,12.10
2012,12,03,04,03,17.80
2012,12,03,04,04,16.60
2012,12,03,04,05,16.20
2012,12,03,04,06,15.50
2012,12,03,04,07,15.00
2012,12,03,04,08,16.00
2012,12,03,04,09,15.70
2012,12,03,04,10,20.40
2012,12,03,04,11,14.90
2012,12,03,04,12,11.10
2012,12,03,04,13,17.20
2012,12,03,04,14,14.70
2012,12,03,04,15,8.50
2012,12,03,04,16,9.30
2012,12,03,04,17,12.90
2012,12,03,04,18,9.00
2012,12,03,04,19,11.10
2012,12,03,04,20,14.10
2012,12,03,04,21,9.50
2012,12,03,04,22,12.80
2012,12,03,04,23,16.20
2012,12,03,04,24,13.00
2012,12,03,04,25,11.30
2012,12,03,04,26,7.00
2012,12,03,04,27,9.80
2012,12,03,04,28,8.90
2012,12,03,04,29,16.30
2012,12,03,04,30,13.10
2012,12,03,04,31,8.90
2012,12,03,04,32,11.60
2012,12,03,04,33,14.30
2012,12,03,04,34,15.40
2012,12,03,04,35,14.60
2012,12,03,04,36,14.50
2012,12,03,04,37,14.90
2012,12,03,04,38,13.40
2012,12,03,04,39,12.20
2012,12,03,04,40,8.40
2012,12,03,04,41,10.90
2012,12,03,04,42,11.90
2012,12,03,04,43,17.20
2012,12,03,04,44,15.80
2012,12,03,04,45,15.20
2012,12,03,04,46,16.30
2012,12,03,04,47,16.40
2012,12,03,04,48,18.30
2012,12,03,04,49,14.90
2012,12,03,04,50,16.30
2012,12,03,04,51,13.90
2012,12,03,04,52,16.20
2012,12,03,04,53,13.40
2012,12,03,04,54,14.10
2012,12,03,04,55,12.30
2012,12,03,04,56,13.70
2012,12,03,04,57,12.00
2012,12,03,04,58,10.90
2012,12,03,04,59,14.40
2012,12,03,05,00,13.00
2012,12,03,05,01,14.40
2012,12,03,05,02,13.80
2012,12,03,05,03,10.80
2012,12,03,05,04,11.50
2012,12,03,05,05,9.10
2012,12,03,05,06,11.60
2012,12,03,05,07,16.10
2012,12,03,05,08,11.30
2012,12,03,05,09,17.40
2012,12,03,05,10,9.30
2012,12,03,05,11,8.90
2012,12,03,05,12,8.60
2012,12,03,05,13,10.50
2012,12,03,05,14,13.50
2012,12,03,05,15,13.00
2012,12,03,05,16,11.90
2012,12,03,05,17,11.70
2012,12,03,05,18,11.10
2012,12,03,05,19,13.90
2012,12,03,05,20,13.30
2012,12,03,05,21,9.80
2012,12,03,05,22,15.00
2012,12,03,05,23,11.40
2012,12,03,05,24,12.50
2012,12,03,05,25,6.90
2012,12,03,05,26,15.70
2012,12,03,05,27,15.60
2012,12,03,05,28,9.40
2012,12,03,05,29,10.90
2012,12,03,05,30,9.00
2012,12,03,05,31,13.60
2012,12,03,05,32,12.80
2012,12,03,05,33,9.30
2012,12,03,05,34,14.10
2012,12,03,05,35,16.30
2012,12,03,05,36,13.00
2012,12,03,05,37,18.90
2012,12,03,05,38,14.90
2012,12,03,05,39,12.90
2012,12,03,05,40,18.40
2012,12,03,05,41,13.40
2012,12,03,05,42,8.50
2012,12,03,05,43,6.00
2012,12,03,05,44,10.80
2012,12,03,05,45,6.40
2012,12,03,05,46,7.00
2012,12,03,05,47,8.10
2012,12,03,05,48,13.80
2012,12,03,05,49,8.80
2012,12,03,05,50,7.70
2012,12,03,05,51,10.60
2012,12,03,05,52,12.20
2012,12,03,05,53,8.70
2012,12,03,05,54,11.80
2012,12,03,05,55,16.80
2012,12,03,05,56,18.40
2012,12,03,05,57,14.00
2012,12,03,05,58,15.60
2012,12,03,05,59,17.50
2012,12,03,06,00,17.10
2012,12,03,06,01,15.90
2012,12,03,06,02,12.90
2012,12,03,06,03,16.40
2012,12,03,06,04,15.10
2012,12,03,06,05,21.10
2012,12,03,06,06,21.20
2012,12,03,06,07,18.30
2012,12,03,06,08,12.10
2012,12,03,06,09,15.60
2012,12,03,06,10,20.40
2012,12,03,06,11,18.00
2012,12,03,06,12,13.90
2012,12,03,06,13,15.10
2012,12,03,06,14,15.80
2012,12,03,06,15,11.90
2012,12,03,06,16,13.10
2012,12,03,06,17,11.90
2012,12,03,06,18,14.20
2012,12,03,06,19,12.10
2012,12,03,06,20,16.70
2012,12,03,06,21,18.30
2012,12,03,06,22,15.30
2012,12,03,06,23,10.80
2012,12,03,06,24,12.30
2012,12,03,06,25,17.00
2012,12,03,06,26,11.60
2012,12,03,06,27,15.40
2012,12,03,06,28,14.70
2012,12,03,06,29,12.60
2012,12,03,06,30,14.50
2012,12,03,06,31,10.90
2012,12,03,06,32,11.00
2012,12,03,06,33,15.60
2012,12,03,06,34,16.20
2012,12,03,06,35,17.20
2012,12,03,06,36,10.80
2012,12,03,06,37,17.30
2012,12,03,06,38,12.30
2012,12,03,06,39,10.80
2012,12,03,06,40,12.30
2012,12,03,06,41,13.30
2012,12,03,06,42,10.90
2012,12,03,06,43,13.40
2012,12,03,06,44,9.70
2012,12,03,06,45,12.70
2012,12,03,06,46,10.00
2012,12,03,06,47,14.50
2012,12,03,06,48,10.80
2012,12,03,06,49,13.60
2012,12,03,06,50,10.00
2012,12,03,06,51,14.20
2012,12,03,06,52,13.00
2012,12,03,06,53,13.20
2012,12,03,06,54,14.30
2012,12,03,06,55,10.20
2012,12,03,06,56,8.60
2012,12,03,06,57,11.40
2012,12,03,06,58,12.60
2012,12,03,06,59,16.90
2012,12,03,07,00,16.60
2012,12,03,07,01,11.40
2012,12,03,07,02,15.70
2012,12,03,07,03,15.20
2012,12,03,07,04,11.50
2012,12,03,07,05,12.60
2012,12,03,07,06,13.50
2012,12,03,07,07,15.80
2012,12,03,07,08,12.10
2012,12,03,07,09,15.10
2012,12,03,07,10,14.90
2012,12,03,07,11,11.60
2012,12,03,07,12,16.20
2012,12,03,07,13,17.40
2012,12,03,07,14,16.10
2012,12,03,07,15,14.80
2012,12,03,07,16,12.20
2012,12,03,07,17,15.00
2012,12,03,07,18,17.00
2012,12,03,07,19,15.10
2012,12,03,07,20,15.50
2012,12,03,07,21,8.60
2012,12,03,07,22,4.70
2012,12,03,07,23,7.50
2012,12,03,07,24,7.20
2012,12,03,07,25,7.90
2012,12,03,07,26,9.20
2012,12,03,07,27,10.90
2012,12,03,07,28,15.70
2012,12,03,07,29,16.90
2012,12,03,07,30,18.00
2012,12,03,07,31,12.60
2012,12,03,07,32,10.90
2012,12,03,07,33,14.10
2012,12,03,07,34,10.80
2012,12,03,07,35,13.60
2012,12,03,07,36,18.70
2012,12,03,07,37,16.80
2012,12,03,07,38,13.00
2012,12,03,07,39,11.80
2012,12,03,07,40,9.60
2012,12,03,07,41,8.90
2012,12,03,07,42,11.20
2012,12,03,07,43,11.80
2012,12,03,07,44,11.50
2012,12,03,07,45,9.40
2012,12,03,07,46,13.00
2012,12,03,07,47,14.00
2012,12,03,07,48,10.10
2012,12,03,07,49,9.30
2012,12,03,07,50,11.10
2012,12,03,07,51,13.90
2012,12,03,07,52,13.20
2012,12,03,07,53,13.50
2012,12,03,07,54,10.40
2012,12,03,07,55,10.30
2012,12,03,07,56,14.50
2012,12,03,07,57,15.90
2012,12,03,07,58,12.70
2012,12,03,07,59,13.30
2012,12,03,08,00,11.90
2012,12,03,08,01,11.50
2012,12,03,08,02,13.10
2012,12,03,08,03,13.40
2012,12,03,08,04,16.30
2012,12,03,08,05,17.30
2012,12,03,08,06,14.10
2012,12,03,08,07,8.90
2012,12,03,08,08,9.10
2012,12,03,08,09,8.20
2012,12,03,08,10,4.70
2012,12,03,08,11,7.20
2012,12,03,08,12,13.90
2012,12,03,08,13,9.00
2012,12,03,08,14,8.00
2012,12,03,08,15,12.50
2012,12,03,08,16,14.60
2012,12,03,08,17,15.10
2012,12,03,08,18,10.90
2012,12,03,08,19,9.10
2012,12,03,08,20,11.00
2012,12,03,08,21,7.60
2012,12,03,08,22,9.40
2012,12,03,08,23,6.90
2012,12,03,08,24,15.20
2012,12,03,08,25,7.30
2012,12,03,08,26,7.90
2012,12,03,08,27,5.20
2012,12,03,08,28,5.10
2012,12,03,08,29,8.50
2012,12,03,08,30,7.00
2012,12,03,08,31,7.20
2012,12,03,08,32,12.20
2012,12,03,08,33,8.90
2012,12,03,08,34,14.70
2012,12,03,08,35,16.40
2012,12,03,08,36,16.30
2012,12,03,08,37,8.90
2012,12,03,08,38,11.20
2012,12,03,08,39,9.90
2012,12,03,08,40,11.80
2012,12,03,08,41,12.10
2012,12,03,08,42,11.90
2012,12,03,08,43,11.50
2012,12,03,08,44,6.80
2012,12,03,08,45,8.60
2012,12,03,08,46,7.60
2012,12,03,08,47,9.70
2012,12,03,08,48,8.30
2012,12,03,08,49,6.30
2012,12,03,08,50,4.90
2012,12,03,08,51,5.50
2012,12,03,08,52,7.20
2012,12,03,08,53,8.20
2012,12,03,08,54,10.00
2012,12,03,08,55,8.70
2012,12,03,08,56,5.80
2012,12,03,08,57,3.90
2012,12,03,08,58,4.70
2012,12,03,08,59,4.30
2012,12,03,09,00,6.70
2012,12,03,09,01,5.30
2012,12,03,09,02,5.30
2012,12,03,09,03,7.10
2012,12,03,09,04,8.80
2012,12,03,09,05,4.70
2012,12,03,09,06,5.80
2012,12,03,09,07,10.10
2012,12,03,09,08,7.50
2012,12,03,09,09,6.40
2012,12,03,09,10,8.50
2012,12,03,09,11,6.40
2012,12,03,09,12,6.80
2012,12,03,09,13,6.60
2012,12,03,09,14,9.40
2012,12,03,09,15,17.80
2012,12,03,09,16,7.80
2012,12,03,09,17,11.30
2012,12,03,09,18,11.50
2012,12,03,09,19,12.20
2012,12,03,09,20,10.10
2012,12,03,09,21,13.10
2012,12,03,09,22,11.40
2012,12,03,09,23,6.20
2012,12,03,09,24,7.60
2012,12,03,09,25,9.40
2012,12,03,09,26,13.70
2012,12,03,09,27,9.40
2012,12,03,09,28,12.50
2012,12,03,09,29,11.70
2012,12,03,09,30,8.80
2012,12,03,09,31,6.50
2012,12,03,09,32,11.50
2012,12,03,09,33,7.50
2012,12,03,09,34,10.90
2012,12,03,09,35,7.50
2012,12,03,09,36,11.80
2012,12,03,09,37,11.80
2012,12,03,09,38,12.50
2012,12,03,09,39,9.20
2012,12,03,09,40,7.70
2012,12,03,09,41,10.90
2012,12,03,09,42,9.60
2012,12,03,09,43,10.00
2012,12,03,09,44,7.00
2012,12,03,09,45,11.60
2012,12,03,09,46,9.90
2012,12,03,09,47,10.50
2012,12,03,09,48,13.50
2012,12,03,09,49,11.60
2012,12,03,09,50,12.20
2012,12,03,09,51,14.40
2012,12,03,09,52,9.40
2012,12,03,09,53,10.50
2012,12,03,09,54,14.20
2012,12,03,09,55,10.60
2012,12,03,09,56,8.90
2012,12,03,09,57,10.10
2012,12,03,09,58,8.60
2012,12,03,09,59,11.00
2012,12,03,10,00,8.10
2012,12,03,10,01,13.80
2012,12,03,10,02,14.60
2012,12,03,10,03,8.70
2012,12,03,10,04,7.60
2012,12,03,10,05,11.40
2012,12,03,10,06,13.40
2012,12,03,10,07,12.40
2012,12,03,10,08,8.80
2012,12,03,10,09,12.60
2012,12,03,10,10,7.80
2012,12,03,10,11,7.40
2012,12,03,10,12,12.20
2012,12,03,10,13,10.80
2012,12,03,10,14,13.60
2012,12,03,10,15,12.20
2012,12,03,10,16,9.70
2012,12,03,10,17,7.30
2012,12,03,10,18,8.20
2012,12,03,10,19,7.80
2012,12,03,10,20,7.10
2012,12,03,10,21,8.50
2012,12,03,10,22,8.00
2012,12,03,10,23,9.80
2012,12,03,10,24,10.70
2012,12,03,10,25,12.70
2012,12,03,10,26,10.20
2012,12,03,10,27,8.20
2012,12,03,10,28,7.90
2012,12,03,10,29,14.70
2012,12,03,10,30,10.80
2012,12,03,10,31,7.60
2012,12,03,10,32,9.20
2012,12,03,10,33,16.30
2012,12,03,10,34,12.30
2012,12,03,10,35,7.80
2012,12,03,10,36,6.60
2012,12,03,10,37,6.50
2012,12,03,10,38,9.60
2012,12,03,10,39,10.90
2012,12,03,10,40,9.50
2012,12,03,10,41,8.20
2012,12,03,10,42,8.90
2012,12,03,10,43,8.30
2012,12,03,10,44,11.60
2012,12,03,10,45,12.40
2012,12,03,10,46,8.10
2012,12,03,10,47,6.50
2012,12,03,10,48,8.50
2012,12,03,10,49,9.30
2012,12,03,10,50,7.40
2012,12,03,10,51,6.80
2012,12,03,10,52,5.90
2012,12,03,10,53,4.80
2012,12,03,10,54,3.80
2012,12,03,10,55,5.40
2012,12,03,10,56,7.00
2012,12,03,10,57,11.60
2012,12,03,10,58,8.60
2012,12,03,10,59,4.30
2012,12,03,11,00,6.20
2012,12,03,11,01,7.50
2012,12,03,11,02,11.50
2012,12,03,11,03,9.00
2012,12,03,11,04,7.60
2012,12,03,11,05,9.00
2012,12,03,11,06,9.30
2012,12,03,11,07,6.00
2012,12,03,11,08,8.00
2012,12,03,11,09,9.10
2012,12,03,11,10,9.30
2012,12,03,11,11,11.20
2012,12,03,11,12,8.00
2012,12,03,11,13,14.00
2012,12,03,11,14,15.00
2012,12,03,11,15,14.20
2012,12,03,11,16,7.50
2012,12,03,11,17,9.00
2012,12,03,11,18,8.70
2012,12,03,11,19,7.20
2012,12,03,11,20,17.80
2012,12,03,11,21,14.00
2012,12,03,11,22,10.70
2012,12,03,11,23,10.90
2012,12,03,11,24,7.70
2012,12,03,11,25,16.40
2012,12,03,11,26,9.40
2012,12,03,11,27,8.30
2012,12,03,11,28,9.40
2012,12,03,11,29,7.50
2012,12,03,11,30,8.30
2012,12,03,11,31,12.00
2012,12,03,11,32,10.30
2012,12,03,11,33,6.30
2012,12,03,11,34,8.30
2012,12,03,11,35,8.00
2012,12,03,11,36,13.40
2012,12,03,11,37,10.60
2012,12,03,11,38,10.30
2012,12,03,11,39,11.00
2012,12,03,11,40,11.00
2012,12,03,11,41,14.70
2012,12,03,11,42,11.10
2012,12,03,11,43,10.00
2012,12,03,11,44,9.60
2012,12,03,11,45,6.00
2012,12,03,11,46,8.10
2012,12,03,11,47,13.70
2012,12,03,11,48,12.20
2012,12,03,11,49,14.70
2012,12,03,11,50,10.10
2012,12,03,11,51,11.30
2012,12,03,11,52,10.20
2012,12,03,11,53,8.30
2012,12,03,11,54,5.10
2012,12,03,11,55,6.30
2012,12,03,11,56,6.80
2012,12,03,11,57,7.10
2012,12,03,11,58,13.20
2012,12,03,11,59,9.40
2012,12,03,12,00,15.80
2012,12,03,12,01,11.50
2012,12,03,12,02,11.30
2012,12,03,12,03,7.90
2012,12,03,12,04,13.10
2012,12,03,12,05,7.50
2012,12,03,12,06,5.20
2012,12,03,12,07,5.90
2012,12,03,12,08,13.70
2012,12,03,12,09,16.30
2012,12,03,12,10,12.30
2012,12,03,12,11,13.60
2012,12,03,12,12,5.60
2012,12,03,12,13,4.70
2012,12,03,12,14,5.70
2012,12,03,12,15,7.30
2012,12,03,12,16,6.30
2012,12,03,12,17,11.90
2012,12,03,12,18,8.00
2012,12,03,12,19,7.40
2012,12,03,12,20,8.10
2012,12,03,12,21,6.10
2012,12,03,12,22,8.70
2012,12,03,12,23,5.40
2012,12,03,12,24,4.30
2012,12,03,12,25,5.40
2012,12,03,12,26,9.00
2012,12,03,12,27,6.90
2012,12,03,12,28,6.20
2012,12,03,12,29,4.30
2012,12,03,12,30,5.40
2012,12,03,12,31,7.80
2012,12,03,12,32,9.30
2012,12,03,12,33,10.30
2012,12,03,12,34,10.90
2012,12,03,12,35,13.00
2012,12,03,12,36,11.90
2012,12,03,12,37,12.00
2012,12,03,12,38,8.90
2012,12,03,12,39,8.10
2012,12,03,12,40,9.90
2012,12,03,12,41,4.80
2012,12,03,12,42,4.40
2012,12,03,12,43,8.80
2012,12,03,12,44,6.90
2012,12,03,12,45,6.20
2012,12,03,12,46,2.60
2012,12,03,12,47,5.70
2012,12,03,12,48,4.80
2012,12,03,12,49,2.60
2012,12,03,12,50,6.10
2012,12,03,12,51,5.20
2012,12,03,12,52,8.70
2012,12,03,12,53,8.50
2012,12,03,12,54,5.20
2012,12,03,12,55,7.30
2012,12,03,12,56,2.30
2012,12,03,12,57,1.40
2012,12,03,12,58,5.90
2012,12,03,12,59,7.70
2012,12,03,13,00,1.60
2012,12,03,13,01,0.90
2012,12,03,13,02,1.60
2012,12,03,13,03,5.70
2012,12,03,13,04,2.20
2012,12,03,13,05,1.10
2012,12,03,13,06,4.60
2012,12,03,13,07,4.70
2012,12,03,13,08,5.30
2012,12,03,13,09,3.80
2012,12,03,13,10,7.50
2012,12,03,13,11,7.10
2012,12,03,13,12,2.20
2012,12,03,13,13,5.80
2012,12,03,13,14,6.00
2012,12,03,13,15,7.20
2012,12,03,13,16,5.80
2012,12,03,13,17,5.50
2012,12,03,13,18,9.60
2012,12,03,13,19,6.90
2012,12,03,13,20,7.60
2012,12,03,13,21,8.20
2012,12,03,13,22,5.40
2012,12,03,13,23,3.50
2012,12,03,13,24,5.70
2012,12,03,13,25,4.10
2012,12,03,13,26,9.30
2012,12,03,13,27,9.40
2012,12,03,13,28,13.30
2012,12,03,13,29,12.50
2012,12,03,13,30,15.80
2012,12,03,13,31,12.80
2012,12,03,13,32,7.30
2012,12,03,13,33,5.10
2012,12,03,13,34,6.50
2012,12,03,13,35,11.80
2012,12,03,13,36,7.10
2012,12,03,13,37,9.70
2012,12,03,13,38,6.60
2012,12,03,13,39,10.40
2012,12,03,13,40,9.60
2012,12,03,13,41,2.80
2012,12,03,13,42,2.70
2012,12,03,13,43,4.40
2012,12,03,13,44,2.70
2012,12,03,13,45,10.90
2012,12,03,13,46,4.50
2012,12,03,13,47,6.80
2012,12,03,13,48,5.60
2012,12,03,13,49,8.00
2012,12,03,13,50,4.90
2012,12,03,13,51,8.70
2012,12,03,13,52,7.80
2012,12,03,13,53,11.50
2012,12,03,13,54,9.90
2012,12,03,13,55,16.50
2012,12,03,13,56,13.40
2012,12,03,13,57,14.60
2012,12,03,13,58,10.10
2012,12,03,13,59,15.30
2012,12,03,14,00,15.40
2012,12,03,14,01,13.90
2012,12,03,14,02,7.10
2012,12,03,14,03,13.00
2012,12,03,14,04,14.20
2012,12,03,14,05,12.20
2012,12,03,14,06,17.70
2012,12,03,14,07,8.50
2012,12,03,14,08,9.30
2012,12,03,14,09,11.10
2012,12,03,14,10,13.30
2012,12,03,14,11,12.10
2012,12,03,14,12,10.40
2012,12,03,14,13,7.80
2012,12,03,14,14,3.10
2012,12,03,14,15,7.60
2012,12,03,14,16,10.00
2012,12,03,14,17,12.20
2012,12,03,14,18,8.80
2012,12,03,14,19,6.30
2012,12,03,14,20,9.30
2012,12,03,14,21,9.70
2012,12,03,14,22,12.90
2012,12,03,14,23,8.20
2012,12,03,14,24,5.90
2012,12,03,14,25,6.00
2012,12,03,14,26,6.00
2012,12,03,14,27,7.20
2012,12,03,14,28,6.90
2012,12,03,14,29,8.30
2012,12,03,14,30,7.50
2012,12,03,14,31,8.30
2012,12,03,14,32,5.60
2012,12,03,14,33,7.20
2012,12,03,14,34,13.10
2012,12,03,14,35,13.30
2012,12,03,14,36,6.60
2012,12,03,14,37,13.00
2012,12,03,14,38,12.30
2012,12,03,14,39,10.20
2012,12,03,14,40,16.50
2012,12,03,14,41,9.30
2012,12,03,14,42,11.20
2012,12,03,14,43,11.30
2012,12,03,14,44,10.40
2012,12,03,14,45,13.60
2012,12,03,14,46,6.60
2012,12,03,14,47,8.00
2012,12,03,14,48,11.90
2012,12,03,14,49,9.20
2012,12,03,14,50,6.90
2012,12,03,14,51,8.80
2012,12,03,14,52,6.80
2012,12,03,14,53,4.80
2012,12,03,14,54,6.80
2012,12,03,14,55,8.20
2012,12,03,14,56,7.50
2012,12,03,14,57,8.40
2012,12,03,14,58,4.00
2012,12,03,14,59,7.40
2012,12,03,15,00,6.70
2012,12,03,15,01,9.60
2012,12,03,15,02,8.80
2012,12,03,15,03,6.60
2012,12,03,15,04,8.70
2012,12,03,15,05,15.80
2012,12,03,15,06,8.00
2012,12,03,15,07,9.10
2012,12,03,15,08,15.00
2012,12,03,15,09,10.90
2012,12,03,15,10,15.40
2012,12,03,15,11,13.80
2012,12,03,15,12,11.30
2012,12,03,15,13,13.30
2012,12,03,15,14,13.00
2012,12,03,15,15,12.10
2012,12,03,15,16,9.10
2012,12,03,15,17,8.00
2012,12,03,15,18,8.90
2012,12,03,15,19,13.30
2012,12,03,15,20,16.10
2012,12,03,15,21,10.10
2012,12,03,15,22,10.10
2012,12,03,15,23,10.40
2012,12,03,15,24,10.80
2012,12,03,15,25,12.40
2012,12,03,15,26,11.20
2012,12,03,15,27,9.70
2012,12,03,15,28,15.00
2012,12,03,15,29,12.70
2012,12,03,15,30,5.50
2012,12,03,15,31,15.40
2012,12,03,15,32,11.70
2012,12,03,15,33,14.00
2012,12,03,15,34,13.50
2012,12,03,15,35,9.40
2012,12,03,15,36,11.70
2012,12,03,15,37,19.10
2012,12,03,15,38,15.20
2012,12,03,15,39,14.20
2012,12,03,15,40,9.10
2012,12,03,15,41,5.70
2012,12,03,15,42,5.70
2012,12,03,15,43,11.90
2012,12,03,15,44,13.90
2012,12,03,15,45,12.80
2012,12,03,15,46,14.80
2012,12,03,15,47,21.00
2012,12,03,15,48,12.40
2012,12,03,15,49,17.80
2012,12,03,15,50,16.50
2012,12,03,15,51,18.00
2012,12,03,15,52,16.60
2012,12,03,15,53,16.80
2012,12,03,15,54,19.20
2012,12,03,15,55,13.90
2012,12,03,15,56,13.90
2012,12,03,15,57,16.40
2012,12,03,15,58,17.10
2012,12,03,15,59,17.90
2012,12,03,16,00,16.10
2012,12,03,16,01,12.30
2012,12,03,16,02,9.70
2012,12,03,16,03,13.90
2012,12,03,16,04,14.20
2012,12,03,16,05,10.50
2012,12,03,16,06,14.90
2012,12,03,16,07,19.20
2012,12,03,16,08,17.60
2012,12,03,16,09,19.30
2012,12,03,16,10,14.50
2012,12,03,16,11,19.00
2012,12,03,16,12,12.90
2012,12,03,16,13,18.80
2012,12,03,16,14,7.20
2012,12,03,16,15,18.80
2012,12,03,16,16,15.30
2012,12,03,16,17,13.70
2012,12,03,16,18,14.30
2012,12,03,16,19,12.80
2012,12,03,16,20,16.80
2012,12,03,16,21,18.70
2012,12,03,16,22,12.60
2012,12,03,16,23,16.70
2012,12,03,16,24,16.00
2012,12,03,16,25,17.30
2012,12,03,16,26,17.10
2012,12,03,16,27,13.20
2012,12,03,16,28,14.20
2012,12,03,16,29,17.10
2012,12,03,16,30,17.30
2012,12,03,16,31,17.40
2012,12,03,16,32,19.60
2012,12,03,16,33,10.40
2012,12,03,16,34,12.80
2012,12,03,16,35,11.60
2012,12,03,16,36,16.80
2012,12,03,16,37,16.80
2012,12,03,16,38,12.40
2012,12,03,16,39,12.60
2012,12,03,16,40,9.40
2012,12,03,16,41,10.00
2012,12,03,16,42,11.60
2012,12,03,16,43,15.00
2012,12,03,16,44,10.20
2012,12,03,16,45,12.10
2012,12,03,16,46,15.20
2012,12,03,16,47,18.30
2012,12,03,16,48,10.20
2012,12,03,16,49,9.40
2012,12,03,16,50,11.40
2012,12,03,16,51,10.50
2012,12,03,16,52,10.80
2012,12,03,16,53,11.30
2012,12,03,16,54,10.80
2012,12,03,16,55,10.70
2012,12,03,16,56,13.10
2012,12,03,16,57,12.80
2012,12,03,16,58,9.00
2012,12,03,16,59,7.40
2012,12,03,17,00,10.10
2012,12,03,17,01,9.90
2012,12,03,17,02,11.80
2012,12,03,17,03,12.50
2012,12,03,17,04,6.90
2012,12,03,17,05,8.90
2012,12,03,17,06,18.80
2012,12,03,17,07,20.00
2012,12,03,17,08,9.90
2012,12,03,17,09,7.10
2012,12,03,17,10,11.70
2012,12,03,17,11,10.40
2012,12,03,17,12,4.30
2012,12,03,17,13,3.20
2012,12,03,17,14,10.70
2012,12,03,17,15,13.60
2012,12,03,17,16,10.90
2012,12,03,17,17,6.50
2012,12,03,17,18,15.50
2012,12,03,17,19,9.80
2012,12,03,17,20,6.80
2012,12,03,17,21,10.30
2012,12,03,17,22,15.80
2012,12,03,17,23,11.20
2012,12,03,17,24,10.60
2012,12,03,17,25,13.90
2012,12,03,17,26,8.60
2012,12,03,17,27,8.30
2012,12,03,17,28,21.00
2012,12,03,17,29,15.70
2012,12,03,17,30,21.90
2012,12,03,17,31,16.50
2012,12,03,17,32,15.60
2012,12,03,17,33,13.50
2012,12,03,17,34,22.40
2012,12,03,17,35,18.50
2012,12,03,17,36,13.20
2012,12,03,17,37,16.00
2012,12,03,17,38,13.90
2012,12,03,17,39,10.30
2012,12,03,17,40,12.50
2012,12,03,17,41,10.80